Flag Weather past 2 weeks in Freiberg, Saxony, Germany

Now
41 °F

Sunny.


Feels Like: 34 °F
Forecast: 37 / 47 °F
Wind: 13 mph from Southeast

Location: Dresden-Klotzsche

Current Time: Nov 23, 2014 at 10:15:25 AM

Latest Report: Nov 23, 2014 at 9:50 AM


Visibility: 10 mi

Pressure: 30.24 "Hg

Humidity: 81%

Dew point: 36 °F

Location of FreibergLocation

Historic Weather in Freiberg — Graph

°F

Freiberg temperature yesterday

Maximum temperature yesterday: 43 °F (at 11:20 AM)
Minimum temperature yesterday: 37 °F (at 4:20 AM)
Average temperature yesterday: 40 °F

Past Weeks' High & Low Weather Summary

 TemperatureHumidityPressure
High57 °F (Nov 8, 12:50 PM)100% (Nov 10, 12:50 AM)30.33 "Hg (Nov 10, 12:50 AM)
Low37 °F (Nov 10, 4:20 AM)59% (Nov 8, 11:50 AM)29.53 "Hg (Nov 16, 4:20 AM)
Average46 °F88%29.93 "Hg
* Reported Nov 8 9:20 AM — Nov 23 9:20 AM, Freiberg, Weather by CustomWeather, © 2014

Note: Actual official high and low records may vary slightly from our data, if they occured in-between our weather recording intervals... More about our weather records

Advertising

Freiberg weather history for previous 24 hours

 ConditionsComfort  
Time TempWeatherWind HumidityBarometerVisibility
9:20 AM
Nov 23
39 °FSunny.14 mph81%30.24 "Hg10 mi
8:50 AM39 °FSunny.12 mph81%30.24 "Hg10 mi
8:20 AM37 °FSunny.14 mph87%30.24 "Hg10 mi
7:50 AM37 °FSunny.13 mph87%30.24 "Hg10 mi
7:20 AM37 °FClear.9 mph87%30.24 "Hg10 mi
6:50 AM37 °FClear.9 mph87%30.21 "Hg10 mi
6:20 AM37 °FClear.13 mph87%30.21 "Hg10 mi
5:50 AM37 °FClear.10 mph87%30.21 "Hg10 mi
5:20 AM37 °FClear.13 mph87%30.21 "Hg10 mi
4:50 AM37 °FClear.13 mph87%30.21 "Hg10 mi
4:20 AM39 °FClear.13 mph81%30.21 "Hg10 mi
3:50 AM39 °FClear.10 mph81%30.21 "Hg10 mi
3:20 AM37 °FClear.12 mph87%30.21 "Hg10 mi
2:50 AM37 °FClear.12 mph87%30.21 "Hg10 mi
2:20 AM39 °FClear.8 mph81%30.21 "Hg10 mi
1:50 AM39 °FClear.12 mph81%30.21 "Hg10 mi
1:20 AM37 °FClear.12 mph87%30.21 "Hg10 mi
12:50 AM39 °FClear.10 mph81%30.24 "Hg10 mi
12:20 AM39 °FClear.12 mph81%30.24 "Hg10 mi
11:50 PM
Nov 22
37 °FClear.10 mph87%30.24 "Hg10 mi
11:20 PM39 °FClear.13 mph81%30.24 "Hg10 mi
10:50 PM39 °FClear.8 mph81%30.24 "Hg10 mi
10:20 PM39 °FClear.10 mph81%30.24 "Hg10 mi
9:50 PM39 °FClear.12 mph81%30.21 "Hg10 mi
9:20 PM39 °FClear.9 mph81%30.24 "Hg10 mi
8:50 PM39 °FClear.13 mph81%30.21 "Hg10 mi
8:20 PM39 °FClear.10 mph81%30.21 "Hg10 mi
7:50 PM39 °FClear.7 mph81%30.21 "Hg10 mi
7:20 PM37 °FClear.10 mph87%30.21 "Hg10 mi
6:50 PM37 °FClear.9 mph87%30.21 "Hg10 mi
6:20 PM37 °FClear.8 mph87%30.21 "Hg10 mi
5:50 PM39 °FClear.9 mph81%30.21 "Hg10 mi
5:20 PM37 °FClear.12 mph87%30.21 "Hg10 mi
4:50 PM39 °FClear.8 mph81%30.21 "Hg10 mi
4:20 PM39 °FClear.8 mph81%30.21 "Hg10 mi
3:50 PM41 °FSunny.8 mph76%30.21 "Hg10 mi
3:20 PM41 °FSunny.10 mph76%30.21 "Hg10 mi
2:50 PM43 °FSunny.9 mph71%30.21 "Hg10 mi
2:20 PM43 °FSunny.12 mph71%30.21 "Hg10 mi
1:50 PM43 °FSunny.13 mph71%30.21 "Hg10 mi
1:20 PM43 °FSunny.12 mph71%30.21 "Hg10 mi
12:50 PM43 °FPassing clouds.12 mph71%30.21 "HgN/A
12:20 PM43 °FPassing clouds.7 mph71%30.24 "HgN/A
11:50 AM43 °FPassing clouds.10 mph71%30.24 "HgN/A
11:20 AM43 °FScattered clouds.10 mph71%30.24 "HgN/A
10:50 AM41 °FSunny.14 mph76%30.24 "Hg10 mi
10:20 AM41 °FSunny.10 mph70%30.24 "Hg10 mi
Weather by CustomWeather, © 2014

See weather overviewHow to use our weather pages